| time (UTC) | temp F | wind direction | speed MPH | gust MPH | rain 1hr in | rain 24hr in | rain mn in | humidity % | barometer mb |
| 20260503202006 | 55 | 269 | 1.0 | 11.0 | 0.00 | 0.06 | 0.00 | 40 | 1006.6 |
| 20260503201518 | 55 | 238 | 0.0 | 8.0 | 0.00 | 0.07 | 0.00 | 42 | 1006.5 |
| 20260503201007 | 55 | 1 | 1.0 | 8.0 | 0.00 | 0.07 | 0.00 | 41 | 1006.5 |
| 20260503200512 | 55 | 191 | 0.0 | 14.0 | 0.00 | 0.07 | 0.00 | 39 | 1006.5 |
| 20260503200024 | 55 | 271 | 6.0 | 14.0 | 0.00 | 0.07 | 0.00 | 41 | 1006.7 |
| 20260503195511 | 55 | 360 | 1.0 | 10.0 | 0.00 | 0.07 | 0.00 | 43 | 1006.7 |
| 20260503195013 | 55 | 1 | 2.0 | 10.0 | 0.00 | 0.07 | 0.00 | 43 | 1006.6 |
| 20260503194525 | 55 | 1 | 2.0 | 10.0 | 0.00 | 0.07 | 0.00 | 43 | 1006.7 |
| 20260503194008 | 55 | 5 | 0.0 | 7.0 | 0.00 | 0.07 | 0.00 | 44 | 1006.7 |
| 20260503193509 | 55 | 325 | 0.0 | 10.0 | 0.00 | 0.07 | 0.00 | 48 | 1006.6 |
| 20260503193030 | 54 | 10 | 0.0 | 10.0 | 0.00 | 0.07 | 0.00 | 47 | 1006.6 |
| 20260503192508 | 54 | 137 | 0.0 | 8.0 | 0.00 | 0.07 | 0.00 | 45 | 1006.7 |
| 20260503192014 | 53 | 248 | 1.0 | 8.0 | 0.00 | 0.07 | 0.00 | 43 | 1006.6 |
| 20260503191533 | 54 | 277 | 0.0 | 13.0 | 0.00 | 0.07 | 0.00 | 45 | 1006.7 |
| 20260503191006 | 54 | 222 | 1.0 | 13.0 | 0.00 | 0.07 | 0.00 | 44 | 1006.7 |
| 20260503190505 | 54 | 360 | 3.0 | 13.0 | 0.00 | 0.07 | 0.00 | 44 | 1006.6 |
| 20260503190019 | 54 | 335 | 3.0 | 14.0 | 0.00 | 0.07 | 0.00 | 44 | 1006.7 |
| 20260503185508 | 54 | 18 | 5.0 | 14.0 | 0.00 | 0.07 | 0.00 | 46 | 1006.7 |
| 20260503185008 | 55 | 359 | 1.0 | 8.0 | 0.00 | 0.07 | 0.00 | 46 | 1006.6 |
| 20260503184524 | 55 | 206 | 1.0 | 7.0 | 0.00 | 0.07 | 0.00 | 45 | 1006.6 |
| 20260503184014 | 55 | 324 | 0.0 | 8.0 | 0.00 | 0.07 | 0.00 | 47 | 1006.6 |
| 20260503183510 | 55 | 323 | 0.0 | 9.0 | 0.00 | 0.07 | 0.00 | 48 | 1006.6 |
| 20260503183028 | 55 | 6 | 0.0 | 12.0 | 0.00 | 0.07 | 0.00 | 47 | 1006.6 |
| 20260503182509 | 55 | 359 | 3.0 | 12.0 | 0.00 | 0.07 | 0.00 | 48 | 1006.6 |
| 20260503182012 | 55 | 338 | 2.0 | 10.0 | 0.00 | 0.07 | 0.00 | 49 | 1006.7 |
| 20260503181527 | 55 | 323 | 3.0 | 11.0 | 0.00 | 0.07 | 0.00 | 50 | 1006.7 |
| 20260503181009 | 54 | 122 | 3.0 | 13.0 | 0.00 | 0.07 | 0.00 | 52 | 1006.7 |
| 20260503180509 | 54 | 360 | 4.0 | 13.0 | 0.00 | 0.07 | 0.00 | 51 | 1006.8 |
| 20260503180029 | 54 | 58 | 2.0 | 12.0 | 0.00 | 0.07 | 0.00 | 51 | 1006.8 |
| 20260503175504 | 54 | 19 | 4.0 | 13.0 | 0.00 | 0.07 | 0.00 | 52 | 1006.7 |
| 20260503175006 | 54 | 345 | 1.0 | 13.0 | 0.00 | 0.07 | 0.00 | 50 | 1006.9 |
| 20260503174520 | 54 | 325 | 2.0 | 11.0 | 0.00 | 0.07 | 0.00 | 52 | 1006.8 |
| 20260503174008 | 53 | 332 | 3.0 | 11.0 | 0.00 | 0.07 | 0.00 | 55 | 1006.8 |
| 20260503173503 | 53 | 258 | 1.0 | 11.0 | 0.00 | 0.07 | 0.00 | 54 | 1006.7 |
| 20260503173004 | 53 | 330 | 3.0 | 11.0 | 0.00 | 0.07 | 0.00 | 54 | 1006.8 |
| 20260503172504 | 52 | 170 | 1.0 | 11.0 | 0.00 | 0.07 | 0.00 | 56 | 1006.8 |
| 20260503172004 | 52 | 261 | 1.0 | 11.0 | 0.00 | 0.07 | 0.00 | 58 | 1006.9 |
| 20260503171507 | 52 | 360 | 0.0 | 10.0 | 0.00 | 0.07 | 0.00 | 57 | 1006.9 |
| 20260503171002 | 52 | 161 | 0.0 | 8.0 | 0.00 | 0.07 | 0.00 | 58 | 1006.9 |
| 20260503170503 | 52 | 337 | 2.0 | 11.0 | 0.00 | 0.07 | 0.00 | 59 | 1006.9 |
| 20260503151006 | 47 | 349 | 4.0 | 12.0 | 0.00 | 0.07 | 0.00 | 75 | 1007.2 |
| 20260503150508 | 47 | 315 | 3.0 | 11.0 | 0.00 | 0.07 | 0.00 | 74 | 1007.1 |
| 20260503131005 | 44 | 355 | 0.0 | 5.0 | 0.00 | 0.07 | 0.00 | 87 | 1007.4 |
| 20260503130505 | 44 | 65 | 0.0 | 10.0 | 0.00 | 0.07 | 0.00 | 87 | 1007.5 |
| 20260503110504 | 42 | 359 | 0.0 | 4.0 | 0.00 | 0.15 | 0.00 | 90 | 1007.9 |
| 20260503090509 | 42 | 356 | 0.0 | 0.0 | 0.00 | 0.16 | 0.00 | 91 | 1008.1 |
| 20260503081522 | 43 | 359 | 0.0 | 0.0 | 0.00 | 0.16 | 0.00 | 91 | 1008.6 |
| 20260503081012 | 43 | 359 | 0.0 | 0.0 | 0.00 | 0.16 | 0.00 | 91 | 1008.7 |
| 20260503080502 | 43 | 359 | 0.0 | 0.0 | 0.00 | 0.16 | 0.00 | 92 | 1008.8 |
| 20260503072507 | 44 | 356 | 0.0 | 0.0 | 0.00 | 0.16 | 0.00 | 93 | 1008.9 |
| 20260503072007 | 44 | 344 | 0.0 | 0.0 | 0.00 | 0.16 | 0.00 | 93 | 1009.0 |
| 20260503071521 | 44 | 344 | 0.0 | 0.0 | 0.00 | 0.16 | 0.00 | 93 | 1009.1 |
| 20260503071008 | 44 | 344 | 0.0 | 0.0 | 0.00 | 0.16 | 0.00 | 93 | 1009.2 |
| 20260503070507 | 44 | 344 | 0.0 | 0.0 | 0.00 | 0.16 | 0.00 | 93 | 1009.1 |
| 20260503055008 | 44 | 344 | 0.0 | 0.0 | 0.00 | 0.16 | 0.00 | 93 | 1010.0 |
| 20260503054534 | 44 | 344 | 0.0 | 0.0 | 0.00 | 0.16 | 0.00 | 93 | 1010.0 |
| 20260503054010 | 44 | 344 | 0.0 | 0.0 | 0.00 | 0.16 | 0.00 | 93 | 1010.0 |
| 20260503053510 | 44 | 344 | 0.0 | 0.0 | 0.00 | 0.16 | 0.00 | 93 | 1010.0 |
| 20260503053025 | 44 | 344 | 0.0 | 0.0 | 0.00 | 0.16 | 0.00 | 93 | 1010.1 |
| 20260503052502 | 45 | 344 | 0.0 | 0.0 | 0.00 | 0.16 | 0.00 | 93 | 1010.2 |
| 20260503052010 | 45 | 344 | 0.0 | 0.0 | 0.00 | 0.16 | 0.00 | 93 | 1010.2 |
| 20260503051517 | 45 | 344 | 0.0 | 0.0 | 0.00 | 0.16 | 0.00 | 93 | 1010.3 |
| 20260503051008 | 45 | 344 | 0.0 | 0.0 | 0.00 | 0.16 | 0.00 | 93 | 1010.4 |
| 20260503050509 | 45 | 344 | 0.0 | 0.0 | 0.00 | 0.16 | 0.00 | 93 | 1010.5 |
| 20260503050034 | 45 | 344 | 0.0 | 0.0 | 0.00 | 0.16 | 0.00 | 93 | 1010.6 |
| 20260503045509 | 45 | 344 | 0.0 | 0.0 | 0.00 | 0.16 | 0.00 | 93 | 1010.6 |
| 20260503045011 | 45 | 344 | 0.0 | 0.0 | 0.00 | 0.16 | 0.00 | 93 | 1010.6 |
| 20260503044525 | 45 | 344 | 0.0 | 0.0 | 0.00 | 0.16 | 0.00 | 93 | 1010.7 |
| 20260503044009 | 45 | 344 | 0.0 | 1.0 | 0.00 | 0.16 | 0.00 | 93 | 1010.8 |
| 20260503043508 | 45 | 344 | 0.0 | 1.0 | 0.00 | 0.16 | 0.00 | 93 | 1010.8 |
| 20260503043030 | 45 | 329 | 0.0 | 0.0 | 0.00 | 0.16 | 0.00 | 93 | 1010.7 |
| 20260503042510 | 45 | 329 | 0.0 | 0.0 | 0.00 | 0.16 | 0.00 | 93 | 1010.9 |
| 20260503042010 | 45 | 329 | 0.0 | 0.0 | 0.00 | 0.16 | 0.00 | 92 | 1011.1 |
| 20260503041537 | 45 | 329 | 0.0 | 0.0 | 0.00 | 0.16 | 0.00 | 92 | 1011.1 |
| 20260503041005 | 46 | 329 | 0.0 | 0.0 | 0.00 | 0.16 | 0.00 | 93 | 1011.0 |
| 20260503040505 | 46 | 329 | 0.0 | 0.0 | 0.00 | 0.16 | 0.00 | 93 | 1011.0 |
| 20260503040019 | 46 | 329 | 0.0 | 0.0 | 0.00 | 0.16 | 0.00 | 93 | 1011.1 |
| 20260503035507 | 46 | 329 | 0.0 | 0.0 | 0.00 | 0.16 | 0.16 | 93 | 1011.1 |
| 20260503035006 | 46 | 329 | 0.0 | 0.0 | 0.00 | 0.16 | 0.16 | 94 | 1011.1 |
| 20260503034522 | 46 | 329 | 0.0 | 0.0 | 0.00 | 0.16 | 0.16 | 94 | 1011.0 |
| 20260503034007 | 46 | 329 | 0.0 | 0.0 | 0.00 | 0.16 | 0.16 | 94 | 1011.1 |
| 20260503033508 | 46 | 329 | 0.0 | 0.0 | 0.00 | 0.16 | 0.16 | 94 | 1011.1 |
| 20260503033028 | 46 | 329 | 0.0 | 0.0 | 0.00 | 0.16 | 0.16 | 94 | 1011.2 |
| 20260503032511 | 46 | 329 | 0.0 | 0.0 | 0.00 | 0.16 | 0.16 | 94 | 1011.1 |
| 20260503032007 | 46 | 329 | 0.0 | 0.0 | 0.00 | 0.16 | 0.16 | 94 | 1011.1 |
| 20260503031526 | 46 | 329 | 0.0 | 0.0 | 0.00 | 0.16 | 0.16 | 94 | 1011.0 |
| 20260503031010 | 46 | 329 | 0.0 | 0.0 | 0.00 | 0.16 | 0.16 | 94 | 1011.0 |
| 20260503030507 | 46 | 329 | 0.0 | 0.0 | 0.00 | 0.16 | 0.16 | 93 | 1011.0 |
| 20260503030033 | 46 | 329 | 0.0 | 0.0 | 0.00 | 0.16 | 0.16 | 93 | 1011.0 |
| 20260503025508 | 46 | 329 | 0.0 | 0.0 | 0.00 | 0.16 | 0.16 | 93 | 1010.9 |
| 20260503025007 | 46 | 329 | 0.0 | 0.0 | 0.00 | 0.16 | 0.16 | 93 | 1011.1 |
| 20260503024517 | 47 | 329 | 0.0 | 0.0 | 0.00 | 0.16 | 0.16 | 93 | 1011.1 |
| 20260503024006 | 47 | 329 | 0.0 | 0.0 | 0.00 | 0.16 | 0.16 | 93 | 1011.0 |
| 20260503023506 | 47 | 329 | 0.0 | 0.0 | 0.00 | 0.16 | 0.16 | 93 | 1011.2 |
| 20260503023006 | 47 | 329 | 0.0 | 0.0 | 0.00 | 0.16 | 0.16 | 93 | 1011.2 |
| 20260503022502 | 47 | 329 | 0.0 | 0.0 | 0.00 | 0.16 | 0.16 | 93 | 1011.4 |
| 20260503022005 | 47 | 329 | 0.0 | 0.0 | 0.00 | 0.16 | 0.16 | 93 | 1011.5 |
| 20260503021508 | 47 | 329 | 0.0 | 0.0 | 0.00 | 0.16 | 0.16 | 92 | 1011.4 |
| 20260503021003 | 47 | 329 | 0.0 | 0.0 | 0.00 | 0.16 | 0.16 | 92 | 1011.4 |
| 20260503020503 | 48 | 329 | 0.0 | 0.0 | 0.00 | 0.16 | 0.16 | 92 | 1011.4 |
| 20260503020010 | 48 | 329 | 0.0 | 0.0 | 0.00 | 0.16 | 0.16 | 93 | 1011.4 |
| 20260503015503 | 48 | 329 | 0.0 | 0.0 | 0.00 | 0.16 | 0.16 | 93 | 1011.4 |
| 20260503015003 | 48 | 329 | 0.0 | 0.0 | 0.00 | 0.16 | 0.16 | 93 | 1011.4 |
| 20260503014514 | 48 | 329 | 0.0 | 0.0 | 0.00 | 0.16 | 0.16 | 93 | 1011.4 |
| 20260503014006 | 48 | 329 | 0.0 | 0.0 | 0.00 | 0.16 | 0.16 | 93 | 1011.3 |
| 20260503013505 | 48 | 329 | 0.0 | 0.0 | 0.00 | 0.16 | 0.16 | 93 | 1011.3 |
| 20260503013020 | 49 | 329 | 0.0 | 0.0 | 0.00 | 0.16 | 0.16 | 93 | 1011.2 |
| 20260503012506 | 49 | 329 | 0.0 | 0.0 | 0.00 | 0.16 | 0.16 | 93 | 1011.3 |
| 20260503012009 | 49 | 329 | 0.0 | 0.0 | 0.00 | 0.16 | 0.16 | 93 | 1011.2 |
| 20260503011523 | 49 | 329 | 0.0 | 0.0 | 0.00 | 0.16 | 0.16 | 93 | 1011.2 |
| 20260503011003 | 49 | 329 | 0.0 | 0.0 | 0.00 | 0.16 | 0.16 | 93 | 1011.1 |
| 20260503010503 | 49 | 329 | 0.0 | 0.0 | 0.00 | 0.16 | 0.16 | 93 | 1011.2 |
| 20260503010005 | 49 | 329 | 0.0 | 0.0 | 0.00 | 0.16 | 0.16 | 93 | 1011.1 |
| 20260503005503 | 49 | 329 | 0.0 | 0.0 | 0.00 | 0.16 | 0.16 | 93 | 1011.0 |
| 20260503005002 | 49 | 329 | 0.0 | 0.0 | 0.00 | 0.16 | 0.16 | 93 | 1011.1 |
| 20260503004536 | 49 | 329 | 0.0 | 0.0 | 0.00 | 0.16 | 0.16 | 92 | 1011.1 |
| 20260503004006 | 49 | 329 | 0.0 | 0.0 | 0.00 | 0.16 | 0.16 | 92 | 1011.0 |
| 20260503003506 | 49 | 6 | 0.0 | 0.0 | 0.00 | 0.16 | 0.16 | 92 | 1010.8 |
| 20260503003018 | 50 | 6 | 0.0 | 0.0 | 0.00 | 0.16 | 0.16 | 92 | 1010.9 |
| 20260503002506 | 50 | 6 | 0.0 | 0.0 | 0.00 | 0.16 | 0.16 | 92 | 1011.0 |
| 20260503002007 | 50 | 6 | 0.0 | 0.0 | 0.00 | 0.16 | 0.16 | 92 | 1011.0 |
| 20260503001522 | 50 | 6 | 0.0 | 0.0 | 0.00 | 0.16 | 0.16 | 92 | 1010.9 |
| 20260503001005 | 50 | 6 | 0.0 | 0.0 | 0.00 | 0.16 | 0.16 | 92 | 1011.0 |
| 20260503000510 | 50 | 6 | 0.0 | 2.0 | 0.00 | 0.16 | 0.16 | 93 | 1011.0 |
| 20260503000026 | 50 | 6 | 0.0 | 2.0 | 0.00 | 0.16 | 0.16 | 93 | 1011.0 |
| 20260502235503 | 50 | 355 | 0.0 | 0.0 | 0.00 | 0.16 | 0.16 | 93 | 1011.0 |
| 20260502235003 | 50 | 355 | 0.0 | 0.0 | 0.00 | 0.16 | 0.16 | 93 | 1010.9 |
| 20260502234512 | 50 | 292 | 0.0 | 0.0 | 0.00 | 0.16 | 0.16 | 93 | 1010.9 |
| 20260502234006 | 51 | 291 | 0.0 | 0.0 | 0.00 | 0.16 | 0.16 | 93 | 1010.9 |
| 20260502233503 | 51 | 291 | 0.0 | 0.0 | 0.00 | 0.16 | 0.16 | 93 | 1010.8 |
| 20260502233015 | 51 | 291 | 0.0 | 0.0 | 0.00 | 0.16 | 0.16 | 93 | 1010.9 |
| 20260502232506 | 51 | 278 | 0.0 | 1.0 | 0.00 | 0.16 | 0.16 | 93 | 1010.8 |
| 20260502232006 | 51 | 232 | 0.0 | 1.0 | 0.00 | 0.16 | 0.16 | 93 | 1010.8 |
| 20260502231521 | 51 | 288 | 0.0 | 0.0 | 0.00 | 0.16 | 0.16 | 93 | 1010.8 |
| 20260502231007 | 51 | 288 | 0.0 | 0.0 | 0.00 | 0.16 | 0.16 | 93 | 1010.7 |
| 20260502230509 | 51 | 288 | 0.0 | 0.0 | 0.00 | 0.16 | 0.16 | 93 | 1010.7 |
| 20260502230029 | 51 | 288 | 0.0 | 0.0 | 0.00 | 0.16 | 0.16 | 93 | 1010.7 |
| 20260502225507 | 51 | 293 | 0.0 | 0.0 | 0.00 | 0.16 | 0.16 | 93 | 1010.6 |
| 20260502225012 | 51 | 321 | 0.0 | 0.0 | 0.00 | 0.16 | 0.16 | 93 | 1010.3 |
| 20260502224527 | 51 | 321 | 0.0 | 0.0 | 0.01 | 0.16 | 0.16 | 93 | 1010.3 |
| 20260502224010 | 50 | 321 | 0.0 | 0.0 | 0.01 | 0.16 | 0.16 | 93 | 1010.2 |
| 20260502223504 | 50 | 321 | 0.0 | 0.0 | 0.01 | 0.16 | 0.16 | 93 | 1010.2 |
| 20260502223010 | 50 | 321 | 0.0 | 0.0 | 0.01 | 0.16 | 0.16 | 92 | 1010.2 |
| 20260502222503 | 51 | 321 | 0.0 | 0.0 | 0.01 | 0.16 | 0.16 | 92 | 1010.2 |
| 20260502222005 | 51 | 321 | 0.0 | 0.0 | 0.01 | 0.16 | 0.16 | 92 | 1010.2 |
| 20260502221517 | 51 | 321 | 0.0 | 0.0 | 0.02 | 0.16 | 0.16 | 92 | 1010.3 |
| 20260502221006 | 51 | 321 | 0.0 | 0.0 | 0.02 | 0.16 | 0.16 | 93 | 1010.3 |
| 20260502220507 | 51 | 321 | 0.0 | 0.0 | 0.03 | 0.16 | 0.16 | 93 | 1010.3 |
| 20260502220022 | 51 | 321 | 0.0 | 0.0 | 0.04 | 0.16 | 0.16 | 93 | 1010.2 |
| 20260502215507 | 51 | 321 | 0.0 | 0.0 | 0.04 | 0.16 | 0.16 | 93 | 1010.3 |
| 20260502215008 | 51 | 321 | 0.0 | 0.0 | 0.05 | 0.16 | 0.16 | 92 | 1010.4 |
| 20260502214525 | 51 | 321 | 0.0 | 0.0 | 0.04 | 0.15 | 0.15 | 92 | 1010.5 |
| 20260502214010 | 51 | 321 | 0.0 | 0.0 | 0.05 | 0.15 | 0.15 | 92 | 1010.5 |
| 20260502213511 | 51 | 321 | 0.0 | 0.0 | 0.05 | 0.15 | 0.15 | 92 | 1010.5 |
| 20260502213026 | 51 | 321 | 0.0 | 0.0 | 0.05 | 0.15 | 0.15 | 91 | 1010.6 |
| 20260502212514 | 51 | 321 | 0.0 | 0.0 | 0.05 | 0.15 | 0.15 | 91 | 1010.6 |
| 20260502212010 | 51 | 321 | 0.0 | 0.0 | 0.05 | 0.15 | 0.15 | 91 | 1010.6 |
| 20260502211514 | 51 | 321 | 0.0 | 0.0 | 0.05 | 0.14 | 0.14 | 90 | 1010.6 |
| 20260502211005 | 51 | 322 | 0.0 | 0.0 | 0.05 | 0.14 | 0.14 | 90 | 1010.6 |
| 20260502210506 | 51 | 322 | 0.0 | 0.0 | 0.04 | 0.13 | 0.13 | 90 | 1010.4 |
| 20260502210017 | 51 | 322 | 0.0 | 0.0 | 0.03 | 0.12 | 0.12 | 89 | 1010.4 |
| 20260502205510 | 52 | 322 | 0.0 | 0.0 | 0.03 | 0.12 | 0.12 | 89 | 1010.4 |
| 20260502205007 | 52 | 322 | 0.0 | 0.0 | 0.02 | 0.11 | 0.11 | 89 | 1010.4 |
| 20260502204527 | 52 | 322 | 0.0 | 0.0 | 0.02 | 0.11 | 0.11 | 88 | 1010.5 |
| 20260502204013 | 52 | 322 | 0.0 | 0.0 | 0.01 | 0.10 | 0.10 | 86 | 1010.5 |
| 20260502203507 | 52 | 322 | 0.0 | 0.0 | 0.01 | 0.10 | 0.10 | 87 | 1010.4 |
| 20260502203024 | 52 | 322 | 0.0 | 0.0 | 0.01 | 0.10 | 0.10 | 86 | 1010.4 |
| 20260502202512 | 53 | 321 | 0.0 | 0.0 | 0.01 | 0.10 | 0.10 | 85 | 1010.4 |